Flag for Comoros Weather past 2 weeks in Moroni, Comoros

Now
81 °F

Passing clouds.


Feels Like: 86 °F
Forecast: 82 / 88 °F
Wind: No wind

Location: Hahaya International Airport

Current Time: Dec 27, 2014 at 3:21:29 AM

Latest Report: Dec 27, 2014 at 1:00 AM


Visibility: N/A

Pressure: 29.86 "Hg

Humidity: 84%

Dew point: 75 °F

Location of MoroniLocation

Historic Weather in Moroni — Graph

°F

Moroni temperature yesterday

Maximum temperature yesterday: 90 °F (at 12:00 PM)
Minimum temperature yesterday: 79 °F (at 6:00 AM)
Average temperature yesterday: 86 °F

Past Weeks' High & Low Weather Summary

 TemperatureHumidityPressure
High93 °F (Dec 12, 12:00 PM)94% (Dec 13, 2:00 PM)29.98 "Hg (Dec 13, 2:00 PM)
Low73 °F (Dec 25, 6:00 AM)52% (Dec 15, 2:00 PM)29.80 "Hg (Dec 18, 3:00 PM)
Average86 °F74%29.90 "Hg
* Reported Dec 12 6:00 AM — Dec 27 1:00 AM, Moroni, Weather by CustomWeather, © 2014

Note: Actual official high and low records may vary slightly from our data, if they occured in-between our weather recording intervals... More about our weather records

Advertising

Moroni weather history for previous 24 hours

 ConditionsComfort  
Time TempWeatherWind HumidityBarometerVisibility
1:00 AM
Dec 27
81 °FPassing clouds.No wind84%29.86 "HgN/A
12:00 AM81 °FPassing clouds.No wind84%29.86 "HgN/A
11:00 PM
Dec 26
81 °FPassing clouds.No wind84%29.89 "HgN/A
10:00 PM82 °FPassing clouds.No wind79%29.89 "HgN/A
9:00 PM84 °FPassing clouds.No wind74%29.86 "HgN/A
8:00 PM84 °FPassing clouds.9 mph79%29.86 "HgN/A
7:00 PM86 °FPassing clouds.7 mph75%29.86 "HgN/A
6:00 PM88 °FScattered clouds.9 mph70%29.83 "HgN/A
5:00 PM90 °FPassing clouds.9 mph67%29.83 "HgN/A
4:00 PM90 °FPassing clouds.10 mph71%29.83 "HgN/A
3:00 PM90 °FScattered clouds.10 mph71%29.83 "HgN/A
2:00 PM90 °FScattered clouds.9 mph71%29.86 "HgN/A
1:00 PM90 °FScattered clouds.10 mph71%29.89 "HgN/A
12:00 PM90 °FScattered clouds.12 mph71%29.89 "HgN/A
11:00 AM88 °FWarm.5 mph75%29.92 "HgN/A
9:00 AM86 °FScattered clouds.8 mph79%29.95 "HgN/A
8:00 AM84 °FScattered clouds.N/A84%29.95 "HgN/A
7:00 AM82 °FPassing clouds.N/A84%29.92 "HgN/A
6:00 AM79 °FScattered clouds.N/A84%29.92 "HgN/A
Weather by CustomWeather, © 2014

See weather overviewHow to use our weather pages